Home   Weather   Dordrecht   Past weeks

Flag for Netherlands Past Weather in Dordrecht, Netherlands — Yesterday and Last 2 Weeks

Now
50 °F

Low clouds.


Feels Like: 45 °F
Forecast: 41 / 50 °F
Wind: 13 mph from Southwest

Location: Rotterdam Zestienhoven Airport

Current Time: Dec 9, 2016 at 3:18:41 am

Latest Report: Dec 9, 2016 at 2:25 am


Visibility: 4 mi

Pressure: 30.30 "Hg

Humidity: 100%

Dew Point: 50 °F

Location of DordrechtLocation

Past Weather in Dordrecht — Graph

°F

Dordrecht Temperature Yesterday

Maximum temperature yesterday: 52 °F (at 10:55 pm)
Minimum temperature yesterday: 45 °F (at 12:25 am)
Average temperature yesterday: 47 °F

High & Low Weather Summary for the Past Weeks

 TemperatureHumidityPressure
High52 °F (Dec 8, 10:55 pm)100% (Nov 26, 4:25 am)30.60 "Hg (Nov 26, 4:25 am)
Low21 °F (Nov 29, 10:55 pm)52% (Nov 29, 2:25 pm)30.09 "Hg (Nov 26, 2:55 pm)
Average38 °F86%30.31 "Hg
* Reported Nov 24 1:25 am — Dec 9 1:55 am, Dordrecht, Weather by CustomWeather, © 2016

Note: Actual official high and low records may vary slightly from our data, if they occured in-between our weather recording intervals... More about our weather records

Advertising

Dordrecht Weather History for the Previous 24 Hours

Scroll right to see more
 ConditionsComfort  
Time TempWeatherWind HumidityBarometerVisibility
1:55 am
Fri, Dec 9
50 °FLow clouds.12 mph100%30.30 "Hg5 mi
1:25 am50 °FLow clouds.13 mph100%30.30 "Hg5 mi
12:55 am52 °FOvercast.12 mph94%30.30 "Hg6 mi
12:25 am52 °FPartly cloudy.14 mph94%30.30 "HgN/A
11:55 pm
Thu, Dec 8
52 °FMostly cloudy.15 mph94%30.30 "HgN/A
11:25 pm52 °FPassing clouds.14 mph94%30.30 "HgN/A
10:55 pm52 °FMostly cloudy.16 mph88%30.30 "HgN/A
10:25 pm50 °FMostly cloudy.15 mph88%30.30 "HgN/A
9:55 pm50 °FMostly cloudy.17 mph82%30.27 "HgN/A
9:25 pm48 °FPassing clouds.15 mph82%30.27 "HgN/A
8:55 pm48 °FOvercast.14 mph82%30.27 "HgN/A
8:25 pm48 °FOvercast.15 mph76%30.27 "HgN/A
7:55 pm48 °FOvercast.16 mph76%30.27 "HgN/A
7:25 pm48 °FOvercast.13 mph76%30.27 "HgN/A
6:55 pm48 °FOvercast.12 mph76%30.27 "HgN/A
6:25 pm48 °FMostly cloudy.13 mph76%30.27 "HgN/A
5:55 pm46 °FOvercast.14 mph82%30.27 "HgN/A
5:25 pm48 °FMostly cloudy.14 mph71%30.27 "HgN/A
4:55 pm48 °FPassing clouds.14 mph71%30.27 "HgN/A
4:25 pm46 °FPartly sunny.16 mph76%30.24 "HgN/A
3:55 pm46 °FClear.16 mph76%30.24 "HgN/A
3:25 pm48 °FClear.16 mph71%30.24 "HgN/A
2:55 pm48 °FClear.13 mph71%30.27 "HgN/A
2:25 pm48 °FClear.12 mph66%30.30 "HgN/A
1:55 pm48 °FClear.10 mph66%30.30 "HgN/A
1:25 pm46 °FClear.9 mph71%30.30 "HgN/A
12:55 pm46 °FClear.12 mph71%30.30 "HgN/A
12:25 pm46 °FClear.13 mph71%30.30 "HgN/A
11:55 am46 °FClear.12 mph71%30.30 "HgN/A
11:25 am46 °FClear.13 mph71%30.33 "HgN/A
10:55 am46 °FClear.9 mph71%30.33 "HgN/A
10:25 am45 °FClear.13 mph76%30.33 "HgN/A
9:55 am45 °FClear.12 mph76%30.33 "HgN/A
9:25 am45 °FClear.10 mph76%30.33 "HgN/A
8:55 am45 °FClear.10 mph76%30.33 "HgN/A
8:25 am45 °FClear.13 mph76%30.33 "HgN/A
7:55 am45 °FClear.14 mph76%30.33 "HgN/A
7:25 am46 °FClear.16 mph71%30.33 "HgN/A
6:55 am46 °FClear.13 mph71%30.33 "HgN/A
6:25 am45 °FClear.12 mph76%30.33 "HgN/A
5:55 am45 °FClear.12 mph76%30.33 "HgN/A
5:25 am46 °FClear.15 mph71%30.33 "HgN/A
4:55 am45 °FClear.13 mph76%30.33 "HgN/A
3:55 am45 °FClear.12 mph76%30.33 "HgN/A
3:25 am45 °FClear.12 mph76%30.33 "HgN/A
Weather by CustomWeather, © 2016

See weather overviewHow to use our weather pages